Flag for Guadeloupe Weather past 2 weeks in Pointe-à-Pitre, Guadeloupe

Now
81 °F

Passing clouds.


Feels Like: 85 °F
Forecast: 76 / 87 °F
Wind: 5 mph from East

Location: Le Raizet - Guadeloupe

Current Time: Jul 6, 2015 at 8:57:39 PM

Latest Report: Jul 6, 2015 at 8:30 PM


Visibility: N/A

Pressure: 30.04 "Hg

Humidity: 79%

Dew point: 73 °F

Location of Pointe-à-PitreLocation

Historic Weather in Pointe-à-Pitre — Graph

°F

Pointe-à-Pitre temperature yesterday

Maximum temperature yesterday: 90 °F (at 11:30 AM)
Minimum temperature yesterday: 75 °F (at 6:00 AM)
Average temperature yesterday: 82 °F

Past Weeks' High & Low Weather Summary

 TemperatureHumidityPressure
High90 °F (Jul 4, 1:00 PM)94% (Jun 22, 4:30 AM)30.15 "Hg (Jun 22, 4:30 AM)
Low73 °F (Jun 22, 12:30 PM)43% (Jul 5, 11:30 AM)29.98 "Hg (Jul 3, 3:30 PM)
Average82 °F73%30.07 "Hg
* Reported Jun 21 7:00 PM — Jul 6 7:30 PM, Pointe-à-Pitre, Weather by CustomWeather, © 2015

Note: Actual official high and low records may vary slightly from our data, if they occured in-between our weather recording intervals... More about our weather records

Advertising

Pointe-à-Pitre weather history for previous 24 hours

 ConditionsComfort  
Time TempWeatherWind HumidityBarometerVisibility
7:30 PM
Mon, Jul 6
81 °FPassing clouds.8 mph79%30.04 "HgN/A
7:00 PM82 °FPassing clouds.7 mph74%30.04 "HgN/A
6:30 PM82 °FPartly sunny.12 mph70%30.04 "HgN/A
6:00 PM82 °FPartly sunny.10 mph70%30.01 "HgN/A
5:00 PM84 °FMostly cloudy.14 mph66%30.01 "HgN/A
4:30 PM84 °FBroken clouds.13 mph62%30.01 "HgN/A
4:00 PM86 °FPartly sunny.15 mph59%30.01 "HgN/A
3:30 PM86 °FMostly cloudy.14 mph59%30.01 "HgN/A
3:00 PM86 °FCloudy.12 mph59%30.01 "HgN/A
2:30 PM88 °FMostly cloudy.14 mph52%30.01 "HgN/A
2:00 PM86 °FMostly cloudy.14 mph52%30.01 "HgN/A
1:30 PM86 °FPartly sunny.15 mph52%30.01 "HgN/A
1:00 PM88 °FPartly sunny.14 mph49%30.01 "HgN/A
12:30 PM88 °FScattered clouds.17 mph52%30.01 "HgN/A
12:00 PM90 °FPartly sunny.14 mph49%30.04 "HgN/A
11:30 AM88 °FPartly sunny.17 mph49%30.04 "HgN/A
11:00 AM86 °FPartly sunny.17 mph59%30.04 "HgN/A
10:30 AM88 °FPartly sunny.13 mph55%30.04 "HgN/A
10:00 AM88 °FPartly sunny.16 mph52%30.04 "HgN/A
9:30 AM86 °FScattered clouds.16 mph59%30.04 "HgN/A
9:00 AM86 °FPassing clouds.15 mph55%30.04 "HgN/A
8:30 AM86 °FClear.13 mph52%30.04 "HgN/A
8:00 AM84 °FPassing clouds.13 mph62%30.04 "HgN/A
7:30 AM82 °FClear.10 mph66%30.04 "HgN/A
7:00 AM81 °FClear.10 mph74%30.04 "HgN/A
6:30 AM79 °FClear.7 mph79%30.01 "HgN/A
6:00 AM79 °FClear.8 mph79%30.01 "HgN/A
5:30 AM79 °FClear.10 mph79%30.01 "HgN/A
5:00 AM79 °FPassing clouds.9 mph84%30.01 "HgN/A
4:30 AM79 °FPassing clouds.9 mph84%30.01 "HgN/A
4:00 AM77 °FPassing clouds.5 mph94%30.01 "HgN/A
3:30 AM79 °FPartly cloudy.3 mph84%30.01 "HgN/A
3:00 AM79 °FPassing clouds.2 mph84%30.01 "HgN/A
2:30 AM77 °FPassing clouds.2 mph89%30.01 "HgN/A
2:00 AM77 °FPassing clouds.2 mph89%30.01 "HgN/A
1:30 AM77 °FOvercast.5 mph89%30.01 "HgN/A
1:00 AM79 °FPassing clouds.2 mph84%30.04 "HgN/A
12:30 AM79 °FPassing clouds.No wind84%30.04 "HgN/A
12:00 AM79 °FClear.2 mph84%30.04 "HgN/A
11:00 PM
Sun, Jul 5
79 °FPassing clouds.3 mph84%30.07 "HgN/A
10:30 PM79 °FPassing clouds.2 mph84%30.07 "HgN/A
10:00 PM81 °FPassing clouds.5 mph74%30.07 "HgN/A
9:30 PM81 °FPassing clouds.3 mph74%30.07 "HgN/A
9:00 PM81 °FOvercast.5 mph74%30.07 "HgN/A
8:30 PM81 °FPassing clouds.3 mph74%30.07 "HgN/A
8:00 PM81 °FOvercast.5 mph74%30.04 "HgN/A
Weather by CustomWeather, © 2015

See weather overviewHow to use our weather pages